VHAGEDORN Weather Reports


time (UTC)temp
C
wind
direction
speed
KPH
gust
KPH
rain 1hr
cm
rain 24hr
cm
rain mn
cm
humidity
%
barometer
mb
20260505034529 8 43 0.0 3.2 0.00 0.03 0.03 60 1013.5
20260505033045 8 59 0.0 3.2 0.00 0.03 0.03 59 1013.4
20260505031515 8 105 0.0 4.8 0.00 0.03 0.03 61 1013.3
20260505030051 8 103 0.0 3.2 0.00 0.03 0.03 60 1013.2
20260505024516 9 26 0.0 3.2 0.00 0.03 0.03 58 1013.1
20260505023039 9 94 0.0 4.8 0.00 0.03 0.03 54 1013.1
20260505021515 9 186 0.0 6.4 0.00 0.03 0.03 52 1012.8
20260505020036 10 11 1.6 9.7 0.00 0.03 0.03 51 1012.6
20260505014553 10 316 4.8 12.9 0.00 0.03 0.03 50 1012.5
20260505013013 10 340 4.8 9.7 0.00 0.03 0.03 49 1012.1
20260505011548 10 316 4.8 12.9 0.00 0.03 0.03 48 1012.1
20260505010021 10 344 4.8 12.9 0.00 0.03 0.03 48 1011.8
20260505004550 11 344 4.8 12.9 0.00 0.03 0.03 47 1011.7
20260505003020 11 360 3.2 9.7 0.00 0.03 0.03 46 1011.5
20260505001547 11 332 3.2 9.7 0.00 0.03 0.03 46 1011.4
20260505000011 11 311 6.4 12.9 0.00 0.03 0.03 45 1011.3
20260504234509 11 316 4.8 9.7 0.00 0.03 0.03 45 1011.2
20260504233009 11 332 4.8 16.1 0.00 0.03 0.03 44 1011.1
20260504231544 12 321 3.2 11.3 0.00 0.03 0.03 45 1010.9
20260504230049 12 348 8.0 17.7 0.00 0.03 0.03 45 1010.6
20260504224541 12 283 4.8 17.7 0.00 0.03 0.03 46 1010.5
20260504211538 11 331 6.4 14.5 0.00 0.03 0.03 61 1010.3
20260504210032 11 272 6.4 16.1 0.00 0.03 0.03 65 1010.2
20260504204521 11 293 4.8 12.9 0.03 0.03 0.03 70 1010.3
20260504203023 11 342 4.8 12.9 0.03 0.03 0.03 70 1010.2
20260504201520 11 302 1.6 6.4 0.03 0.03 0.03 67 1010.0
20260504200018 11 340 3.2 8.0 0.03 0.03 0.03 65 1010.2
20260504194518 11 325 1.6 6.4 0.00 0.00 0.00 62 1010.2
20260504193018 11 33 4.8 9.7 0.00 0.00 0.00 62 1009.9
20260504191552 12 344 6.4 16.1 0.00 0.00 0.00 50 1009.7
20260504190040 13 319 8.0 16.1 0.00 0.00 0.00 45 1009.6
20260504184508 13 346 6.4 17.7 0.00 0.00 0.00 47 1009.8
20260504183003 14 309 6.4 19.3 0.00 0.00 0.00 45 1009.9
20260504181557 14 304 4.8 14.5 0.00 0.00 0.00 45 1009.8
20260504181505 14 319 4.8 14.5 0.00 0.00 0.00 45 1009.8
20260504180049 13 302 4.8 16.1 0.00 0.00 0.00 45 1009.9
20260504174524 14 304 6.4 16.1 0.00 0.00 0.00 44 1009.9
20260504173102 13 294 6.4 20.9 0.00 0.00 0.00 44 1009.7
20260504173002 13 303 8.0 20.9 0.00 0.00 0.00 44 1009.6
20260504171538 15 307 4.8 16.1 0.00 0.00 0.00 43 1009.8